sat.trackr.live / text

‹ back to catalog

STARLINK-37499

NORAD 69250 · 2026-117N

PAYLOAD ACTIVE UNKNOWN

§ Identity

Operator
Country
US
Launch date
2026-05-29
Launch site
AFETR
Launch vehicle
Mass (kg)
RCS (m²)

Purposes: comms

External: N2YO · Heavens-Above · Gunter

§ Orbital elements

Epoch: 2026-09-20T00:08:02.836032Z

Period
93.85 min
Inclination
53.1555°
Eccentricity
0.0001262
Mean motion
15.34410188 rev/d
Perigee alt
461.8 km
Apogee alt
463.5 km
Semi-major
6,840.8 km
B*
7.0631e-4
RAAN
155.8719°
Arg perigee
76.6790°
Mean anomaly
283.4354°
Rev number
1,759

§ Raw data

STARLINK-374991 69250U 26117N   26263.00558838  .00023570  00000+0  70631-3 0  99912 69250  53.1555 155.8719 0001262  76.6790 283.4354 15.34410188 17596

JSON: /api/v1/satellites/69250 · /tle

For live sub-satellite position, see the globe view (requires WebGL).

§ Visibility from observer

Set your observer location to see the next 7 days of passes ≥ 10°. The values pass through the URL so the page stays shareable.

No JS? Fill the form by hand. The geolocation button needs JavaScript.